Location: Staunton
(38.1490°N, 79.0720°W)
Time: 14:25:10
(UTC-04:00)

ISS - Pass Details

Date: 27 May 2017
Orbit: 402 x 408 km, 51.6° (Epoch: 29 May)

Event Time Altitude Azimuth Distance (km) Brightness Sun altitude
Rises 22:38:52 0° 285° (WNW) 2,329 0.9 -20.2°
Reaches altitude 10° 22:42:03 10° 319° (NW) 1,469 0.2 -20.6°
Maximum altitude 22:43:23 12° 343° (NNW) 1,357 -0.2 -20.7°
Drops below altitude 10° 22:44:44 10° 7° (N) 1,469 -0.4 -20.9°
Sets 22:47:55 0° 40° (NE) 2,330 0.2 -21.3°
